QPF
0.07 0.07 0.07 0.09 0.08 0.05 0.05 0.07 0.05 0.04 0.04 0.05 0.07 0.05 0.03 0.01 0.03 0.03 0.04 0.01 0.01 0.01 0.01 0.01 0.01 0.01 0.01 0.00 0.01 0.01 0.01 0.01 0.01 0.01 0.01 0.01 0.00 0.00 0.00 0.01 0.01 0.01 0.00
0.06 0.07 0.05 0.06 0.06 0.06 0.06 0.05 0.05 0.05 0.04 0.05 0.06 0.05 0.03 0.01 0.02 0.03 0.05 0.03 0.01 0.01 0.01 0.01 0.01 0.02 0.01 0.01 0.01 0.01 0.01 0.02 0.02 0.01 0.01 0.01 0.01 0.00 0.00 0.00 0.00 0.00 0.00
0.04 0.05 0.06 0.05 0.05 0.05 0.04 0.04 0.04 0.05 0.06 0.06 0.05 0.05 0.05 0.04 0.03 0.03 0.03 0.04 0.03 0.01 0.01 0.01 0.02 0.02 0.01 0.01 0.01 0.01 0.01 0.01 0.02 0.01 0.01 0.01 0.01 0.01 0.01 0.01 0.00 0.00 0.01
0.03 0.04 0.05 0.05 0.05 0.05 0.05 0.05 0.04 0.04 0.05 0.05 0.04 0.03 0.03 0.03 0.03 0.04 0.03 0.05 0.06 0.05 0.03 0.01 0.01 0.01 0.01 0.01 0.01 0.01 0.01 0.01 0.01 0.01 0.01 0.01 0.01 0.01 0.01 0.01 0.01 0.01 0.01
0.03 0.04 0.06 0.06 0.06 0.06 0.06 0.05 0.06 0.04 0.06 0.06 0.03 0.04 0.03 0.03 0.03 0.04 0.04 0.05 0.06 0.05 0.03 0.03 0.01 0.01 0.01 0.01 0.01 0.01 0.01 0.01 0.01 0.01 0.01 0.01 0.01 0.01 0.02 0.01 0.01 0.01 0.01
0.03 0.05 0.06 0.05 0.03 0.05 0.08 0.07 0.07 0.06 0.05 0.05 0.03 0.04 0.03 0.02 0.02 0.03 0.04 0.04 0.03 0.01 0.02 0.04 0.04 0.01 0.01 0.01 0.02 0.01 0.01 0.01 0.02 0.02 0.02 0.01 0.01 0.01 0.01 0.01 0.00 0.01 0.01
0.04 0.06 0.08 0.07 0.06 0.06 0.07 0.07 0.08 0.08 0.08 0.06 0.06 0.07 0.05 0.03 0.02 0.03 0.03 0.03 0.03 0.04 0.04 0.05 0.05 0.04 0.03 0.01 0.01 0.01 0.02 0.03 0.04 0.03 0.03 0.02 0.02 0.02 0.02 0.01 0.01 0.01 0.02
0.05 0.06 0.10 0.08 0.08 0.10 0.09 0.09 0.10 0.10 0.10 0.09 0.10 0.13 0.10 0.10 0.07 0.03 0.03 0.03 0.05 0.08 0.10 0.05 0.04 0.05 0.05 0.05 0.01 0.00 0.01 0.02 0.04 0.05 0.03 0.02 0.03 0.03 0.02 0.02 0.01 0.01 0.02
0.06 0.08 0.11 0.10 0.10 0.08 0.11 0.10 0.09 0.09 0.10 0.10 0.10 0.11 0.13 0.14 0.11 0.06 0.03 0.03 0.04 0.05 0.05 0.04 0.03 0.04 0.04 0.05 0.03 0.02 0.02 0.02 0.03 0.04 0.04 0.04 0.04 0.03 0.02 0.02 0.03 0.02 0.02
0.07 0.07 0.07 0.08 0.08 0.08 0.10 0.08 0.09 0.08 0.10 0.10 0.11 0.09 0.09 0.12 0.14 0.11 0.07 0.04 0.04 0.04 0.04 0.04 0.04 0.04 0.03 0.04 0.06 0.03 0.02 0.02 0.01 0.02 0.02 0.04 0.04 0.03 0.03 0.03 0.03 0.03 0.03
0.07 0.06 0.06 0.07 0.08 0.09 0.10 0.09 0.11 0.10 0.10 0.10 0.11 0.13 0.13 0.12 0.09 0.12 0.13 0.08 0.07 0.03 0.02 0.02 0.03 0.04 0.03 0.06 0.07 0.05 0.04 0.02 0.01 0.01 0.02 0.03 0.04 0.04 0.04 0.03 0.03 0.04 0.04
0.09 0.10 0.09 0.09 0.09 0.10 0.09 0.10 0.10 0.11 0.11 0.12 0.12 0.12 0.12 0.10 0.09 0.13 0.13 0.11 0.08 0.03 0.02 0.02 0.03 0.02 0.03 0.05 0.06 0.06 0.05 0.04 0.02 0.01 0.01 0.01 0.03 0.04 0.04 0.04 0.04 0.05 0.05
0.12 0.12 0.09 0.08 0.07 0.08 0.07 0.09 0.09 0.08 0.09 0.11 0.11 0.10 0.09 0.08 0.07 0.10 0.14 0.12 0.10 0.06 0.07 0.07 0.05 0.05 0.04 0.04 0.04 0.05 0.03 0.03 0.02 0.01 0.01 0.01 0.02 0.02 0.03 0.04 0.04 0.05 0.05
0.07 0.08 0.09 0.07 0.06 0.06 0.08 0.11 0.08 0.08 0.10 0.09 0.08 0.11 0.10 0.08 0.08 0.11 0.14 0.16 0.15 0.09 0.08 0.08 0.05 0.05 0.04 0.04 0.04 0.07 0.05 0.05 0.03 0.03 0.02 0.02 0.02 0.02 0.03 0.03 0.04 0.03 0.03
0.05 0.08 0.08 0.08 0.06 0.06 0.10 0.13 0.10 0.10 0.12 0.09 0.10 0.12 0.11 0.09 0.11 0.12 0.13 0.18 0.19 0.16 0.12 0.08 0.06 0.04 0.04 0.04 0.07 0.04 0.04 0.06 0.05 0.04 0.04 0.04 0.02 0.02 0.02 0.02 0.02 0.02 0.02
0.09 0.09 0.09 0.06 0.06 0.07 0.09 0.11 0.09 0.10 0.13 0.11 0.12 0.12 0.12 0.11 0.13 0.14 0.14 0.17 0.19 0.18 0.14 0.08 0.08 0.07 0.08 0.06 0.07 0.04 0.04 0.05 0.04 0.03 0.03 0.03 0.02 0.02 0.02 0.02 0.01 0.01 0.01
0.10 0.08 0.07 0.07 0.09 0.09 0.09 0.10 0.08 0.09 0.10 0.11 0.09 0.10 0.09 0.11 0.14 0.14 0.15 0.17 0.17 0.17 0.14 0.10 0.09 0.09 0.13 0.12 0.11 0.08 0.06 0.06 0.04 0.06 0.05 0.03 0.02 0.02 0.02 0.02 0.02 0.02 0.02
0.09 0.08 0.07 0.08 0.09 0.11 0.12 0.10 0.09 0.10 0.11 0.12 0.11 0.11 0.10 0.11 0.13 0.13 0.14 0.14 0.15 0.17 0.15 0.13 0.12 0.13 0.14 0.14 0.14 0.14 0.09 0.05 0.04 0.09 0.08 0.05 0.03 0.03 0.03 0.03 0.02 0.02 0.02
0.09 0.11 0.10 0.08 0.08 0.10 0.09 0.10 0.10 0.11 0.09 0.11 0.11 0.10 0.10 0.12 0.13 0.14 0.14 0.13 0.14 0.16 0.19 0.18 0.16 0.16 0.14 0.14 0.17 0.15 0.11 0.09 0.05 0.08 0.08 0.05 0.05 0.04 0.03 0.02 0.03 0.02 0.02
0.09 0.10 0.09 0.08 0.09 0.10 0.09 0.08 0.08 0.10 0.10 0.10 0.09 0.08 0.10 0.12 0.14 0.15 0.14 0.15 0.15 0.17 0.19 0.18 0.17 0.15 0.15 0.15 0.16 0.14 0.12 0.11 0.09 0.05 0.06 0.07 0.06 0.04 0.03 0.03 0.03 0.03 0.02
0.07 0.06 0.09 0.08 0.08 0.10 0.08 0.08 0.09 0.10 0.11 0.09 0.08 0.08 0.08 0.08 0.08 0.08 0.08 0.11 0.13 0.16 0.17 0.17 0.17 0.16 0.15 0.15 0.13 0.12 0.11 0.11 0.10 0.09 0.09 0.07 0.08 0.07 0.07 0.06 0.05 0.05 0.04
0.09 0.09 0.09 0.09 0.09 0.08 0.07 0.09 0.08 0.09 0.10 0.07 0.08 0.09 0.07 0.06 0.05 0.05 0.05 0.05 0.07 0.09 0.11 0.13 0.14 0.13 0.13 0.14 0.13 0.12 0.12 0.14 0.12 0.10 0.13 0.12 0.12 0.10 0.09 0.10 0.11 0.08 0.06
0.10 0.10 0.10 0.10 0.10 0.08 0.07 0.07 0.05 0.06 0.07 0.07 0.08 0.09 0.06 0.05 0.06 0.06 0.05 0.05 0.06 0.06 0.08 0.09 0.11 0.12 0.13 0.13 0.12 0.11 0.13 0.14 0.13 0.10 0.13 0.12 0.13 0.12 0.08 0.10 0.14 0.11 0.09
0.14 0.11 0.08 0.08 0.08 0.06 0.05 0.05 0.04 0.04 0.04 0.05 0.06 0.06 0.06 0.06 0.06 0.06 0.06 0.07 0.07 0.08 0.08 0.07 0.08 0.09 0.10 0.11 0.12 0.12 0.13 0.12 0.11 0.11 0.14 0.13 0.13 0.12 0.09 0.10 0.12 0.11 0.10
0.12 0.15 0.11 0.09 0.08 0.06 0.05 0.03 0.03 0.04 0.05 0.04 0.04 0.04 0.05 0.05 0.06 0.06 0.07 0.07 0.07 0.07 0.07 0.06 0.05 0.05 0.06 0.06 0.07 0.08 0.09 0.10 0.11 0.11 0.14 0.15 0.13 0.15 0.13 0.11 0.10 0.09 0.07
0.07 0.09 0.09 0.07 0.07 0.06 0.07 0.06 0.05 0.06 0.06 0.05 0.04 0.03 0.04 0.04 0.05 0.06 0.06 0.06 0.06 0.06 0.05 0.06 0.06 0.07 0.07 0.08 0.08 0.08 0.11 0.13 0.14 0.13 0.13 0.16 0.15 0.13 0.12 0.08 0.08 0.09 0.08
MSLP
1016.58 1016.83 1017.02 1017.15 1017.23 1017.27 1017.28 1017.25 1017.18 1017.09 1016.96 1016.84 1016.75 1016.72 1016.81 1017.02 1017.35 1017.80 1018.31 1018.83 1019.31 1019.71 1020.01 1020.21 1020.32 1020.39 1020.44 1020.50 1020.59 1020.71 1020.85 1020.99 1021.12 1021.25 1021.36 1021.47 1021.59 1021.72 1021.87 1022.03 1022.18 1022.31 1022.40
1016.60 1016.85 1017.04 1017.17 1017.25 1017.29 1017.30 1017.29 1017.25 1017.19 1017.10 1017.01 1016.94 1016.91 1016.96 1017.10 1017.34 1017.68 1018.08 1018.52 1018.94 1019.33 1019.66 1019.92 1020.12 1020.27 1020.39 1020.50 1020.60 1020.69 1020.79 1020.87 1020.95 1021.02 1021.10 1021.20 1021.32 1021.47 1021.63 1021.80 1021.96 1022.10 1022.20
1016.61 1016.85 1017.03 1017.16 1017.25 1017.31 1017.36 1017.38 1017.39 1017.37 1017.34 1017.29 1017.23 1017.19 1017.18 1017.23 1017.35 1017.54 1017.80 1018.11 1018.45 1018.80 1019.14 1019.45 1019.73 1019.97 1020.18 1020.34 1020.48 1020.57 1020.64 1020.69 1020.72 1020.76 1020.81 1020.89 1021.01 1021.15 1021.32 1021.50 1021.66 1021.80 1021.91
1016.58 1016.80 1016.97 1017.11 1017.22 1017.32 1017.40 1017.48 1017.55 1017.60 1017.62 1017.61 1017.57 1017.50 1017.43 1017.38 1017.36 1017.39 1017.49 1017.66 1017.89 1018.18 1018.50 1018.84 1019.18 1019.49 1019.77 1020.01 1020.18 1020.31 1020.38 1020.41 1020.43 1020.44 1020.48 1020.55 1020.66 1020.80 1020.96 1021.13 1021.29 1021.43 1021.54
1016.51 1016.70 1016.86 1017.01 1017.15 1017.28 1017.41 1017.55 1017.68 1017.79 1017.87 1017.90 1017.87 1017.79 1017.66 1017.52 1017.37 1017.26 1017.20 1017.22 1017.33 1017.52 1017.79 1018.12 1018.48 1018.84 1019.18 1019.47 1019.70 1019.86 1019.96 1020.02 1020.05 1020.07 1020.11 1020.18 1020.28 1020.42 1020.57 1020.72 1020.87 1021.00 1021.11
1016.39 1016.55 1016.71 1016.87 1017.03 1017.20 1017.38 1017.56 1017.74 1017.90 1018.02 1018.08 1018.07 1017.99 1017.83 1017.62 1017.38 1017.15 1016.96 1016.84 1016.82 1016.90 1017.09 1017.36 1017.70 1018.07 1018.43 1018.75 1019.03 1019.23 1019.38 1019.48 1019.55 1019.61 1019.68 1019.77 1019.89 1020.01 1020.15 1020.29 1020.41 1020.53 1020.63
1016.24 1016.38 1016.54 1016.71 1016.90 1017.10 1017.30 1017.51 1017.72 1017.90 1018.05 1018.14 1018.15 1018.07 1017.91 1017.67 1017.38 1017.07 1016.79 1016.56 1016.41 1016.38 1016.45 1016.63 1016.90 1017.22 1017.55 1017.88 1018.17 1018.42 1018.62 1018.78 1018.92 1019.05 1019.17 1019.30 1019.44 1019.57 1019.70 1019.82 1019.92 1020.02 1020.11
1016.08 1016.22 1016.38 1016.57 1016.77 1016.98 1017.19 1017.41 1017.61 1017.79 1017.94 1018.04 1018.07 1018.02 1017.88 1017.66 1017.37 1017.04 1016.70 1016.39 1016.14 1015.98 1015.93 1015.98 1016.13 1016.35 1016.61 1016.90 1017.18 1017.45 1017.70 1017.93 1018.14 1018.34 1018.54 1018.73 1018.90 1019.06 1019.19 1019.29 1019.38 1019.46 1019.54
1015.94 1016.08 1016.25 1016.44 1016.65 1016.86 1017.06 1017.25 1017.43 1017.58 1017.72 1017.81 1017.86 1017.84 1017.76 1017.58 1017.34 1017.02 1016.68 1016.32 1015.99 1015.72 1015.53 1015.43 1015.43 1015.51 1015.66 1015.86 1016.10 1016.36 1016.64 1016.92 1017.20 1017.48 1017.75 1018.01 1018.23 1018.42 1018.57 1018.68 1018.76 1018.83 1018.91
1015.80 1015.94 1016.13 1016.34 1016.55 1016.75 1016.92 1017.07 1017.20 1017.30 1017.40 1017.48 1017.54 1017.57 1017.54 1017.44 1017.27 1017.01 1016.69 1016.32 1015.94 1015.57 1015.25 1014.99 1014.82 1014.74 1014.74 1014.83 1014.99 1015.21 1015.48 1015.79 1016.12 1016.47 1016.80 1017.12 1017.39 1017.62 1017.80 1017.93 1018.02 1018.10 1018.18
1015.63 1015.79 1016.00 1016.22 1016.44 1016.62 1016.76 1016.86 1016.92 1016.97 1017.03 1017.08 1017.15 1017.21 1017.25 1017.23 1017.14 1016.96 1016.69 1016.34 1015.93 1015.48 1015.05 1014.65 1014.31 1014.07 1013.92 1013.87 1013.92 1014.07 1014.30 1014.60 1014.95 1015.32 1015.70 1016.06 1016.38 1016.65 1016.86 1017.02 1017.14 1017.24 1017.34
1015.41 1015.59 1015.82 1016.06 1016.28 1016.45 1016.56 1016.61 1016.62 1016.62 1016.62 1016.66 1016.72 1016.81 1016.90 1016.96 1016.96 1016.85 1016.64 1016.32 1015.90 1015.42 1014.89 1014.38 1013.90 1013.51 1013.21 1013.02 1012.96 1013.01 1013.17 1013.41 1013.73 1014.10 1014.48 1014.86 1015.20 1015.50 1015.75 1015.95 1016.11 1016.24 1016.37
1015.10 1015.31 1015.56 1015.82 1016.05 1016.22 1016.32 1016.34 1016.31 1016.26 1016.22 1016.23 1016.29 1016.40 1016.53 1016.64 1016.70 1016.67 1016.52 1016.24 1015.83 1015.33 1014.76 1014.17 1013.59 1013.08 1012.66 1012.35 1012.16 1012.09 1012.15 1012.31 1012.56 1012.86 1013.21 1013.57 1013.91 1014.22 1014.50 1014.73 1014.93 1015.12 1015.29
1014.72 1014.95 1015.23 1015.51 1015.76 1015.94 1016.04 1016.05 1016.00 1015.92 1015.86 1015.85 1015.90 1016.00 1016.15 1016.30 1016.41 1016.43 1016.32 1016.08 1015.71 1015.21 1014.63 1014.01 1013.38 1012.80 1012.28 1011.87 1011.56 1011.38 1011.31 1011.35 1011.49 1011.70 1011.96 1012.26 1012.56 1012.87 1013.15 1013.41 1013.66 1013.88 1014.10
1014.29 1014.55 1014.85 1015.17 1015.44 1015.64 1015.75 1015.77 1015.72 1015.64 1015.57 1015.54 1015.58 1015.68 1015.82 1015.98 1016.10 1016.15 1016.08 1015.88 1015.54 1015.08 1014.52 1013.91 1013.27 1012.66 1012.09 1011.60 1011.20 1010.90 1010.70 1010.60 1010.59 1010.67 1010.81 1011.01 1011.25 1011.51 1011.77 1012.05 1012.31 1012.57 1012.83
1013.87 1014.15 1014.49 1014.84 1015.15 1015.38 1015.53 1015.57 1015.54 1015.47 1015.40 1015.36 1015.38 1015.46 1015.59 1015.73 1015.85 1015.90 1015.84 1015.67 1015.37 1014.96 1014.45 1013.87 1013.27 1012.66 1012.08 1011.55 1011.07 1010.67 1010.33 1010.08 1009.92 1009.83 1009.82 1009.89 1010.02 1010.21 1010.43 1010.68 1010.94 1011.21 1011.48
1013.52 1013.84 1014.22 1014.60 1014.96 1015.23 1015.42 1015.50 1015.50 1015.45 1015.39 1015.35 1015.35 1015.40 1015.49 1015.60 1015.69 1015.72 1015.67 1015.51 1015.25 1014.88 1014.43 1013.91 1013.36 1012.79 1012.22 1011.67 1011.14 1010.65 1010.20 1009.80 1009.47 1009.21 1009.03 1008.95 1008.95 1009.02 1009.17 1009.36 1009.59 1009.84 1010.09
1013.30 1013.67 1014.09 1014.52 1014.91 1015.24 1015.46 1015.59 1015.62 1015.60 1015.55 1015.50 1015.49 1015.51 1015.57 1015.63 1015.67 1015.67 1015.60 1015.45 1015.20 1014.88 1014.48 1014.03 1013.53 1013.01 1012.47 1011.91 1011.35 1010.79 1010.23 1009.70 1009.21 1008.79 1008.45 1008.20 1008.05 1007.99 1008.02 1008.13 1008.28 1008.47 1008.68
1013.23 1013.65 1014.12 1014.60 1015.04 1015.41 1015.67 1015.84 1015.91 1015.91 1015.87 1015.83 1015.80 1015.79 1015.80 1015.82 1015.81 1015.77 1015.67 1015.50 1015.27 1014.96 1014.60 1014.20 1013.76 1013.28 1012.76 1012.21 1011.63 1011.02 1010.38 1009.74 1009.12 1008.55 1008.05 1007.64 1007.33 1007.13 1007.02 1007.00 1007.05 1007.15 1007.27
1013.30 1013.78 1014.31 1014.84 1015.32 1015.72 1016.02 1016.22 1016.32 1016.34 1016.31 1016.27 1016.23 1016.20 1016.17 1016.14 1016.09 1016.00 1015.87 1015.67 1015.43 1015.13 1014.79 1014.41 1014.00 1013.55 1013.06 1012.52 1011.92 1011.28 1010.59 1009.87 1009.15 1008.46 1007.82 1007.27 1006.80 1006.44 1006.18 1006.02 1005.93 1005.89 1005.90
1013.48 1014.03 1014.61 1015.18 1015.69 1016.13 1016.45 1016.67 1016.79 1016.82 1016.81 1016.77 1016.72 1016.67 1016.62 1016.56 1016.47 1016.34 1016.16 1015.94 1015.66 1015.35 1015.00 1014.63 1014.23 1013.79 1013.31 1012.78 1012.19 1011.53 1010.82 1010.06 1009.28 1008.50 1007.76 1007.07 1006.47 1005.96 1005.54 1005.21 1004.96 1004.77 1004.64
1013.73 1014.33 1014.96 1015.56 1016.10 1016.55 1016.89 1017.12 1017.25 1017.30 1017.30 1017.26 1017.22 1017.16 1017.09 1017.01 1016.89 1016.73 1016.51 1016.25 1015.95 1015.60 1015.23 1014.84 1014.42 1013.98 1013.51 1012.98 1012.40 1011.76 1011.05 1010.28 1009.48 1008.65 1007.84 1007.07 1006.35 1005.70 1005.12 1004.62 1004.20 1003.84 1003.55
1014.03 1014.67 1015.33 1015.95 1016.50 1016.96 1017.30 1017.53 1017.66 1017.71 1017.72 1017.70 1017.65 1017.60 1017.53 1017.44 1017.30 1017.12 1016.87 1016.58 1016.24 1015.86 1015.45 1015.03 1014.59 1014.14 1013.66 1013.15 1012.59 1011.97 1011.29 1010.55 1009.76 1008.93 1008.09 1007.26 1006.45 1005.69 1004.97 1004.32 1003.72 1003.20 1002.75
1014.39 1015.05 1015.71 1016.33 1016.87 1017.31 1017.64 1017.86 1017.98 1018.04 1018.05 1018.04 1018.01 1017.97 1017.90 1017.81 1017.67 1017.47 1017.21 1016.89 1016.51 1016.09 1015.65 1015.19 1014.73 1014.26 1013.79 1013.29 1012.76 1012.19 1011.56 1010.88 1010.14 1009.34 1008.52 1007.66 1006.81 1005.96 1005.13 1004.34 1003.60 1002.92 1002.32
1014.84 1015.50 1016.14 1016.73 1017.24 1017.65 1017.95 1018.14 1018.25 1018.31 1018.32 1018.31 1018.29 1018.26 1018.20 1018.11 1017.97 1017.77 1017.50 1017.16 1016.76 1016.31 1015.84 1015.36 1014.87 1014.39 1013.92 1013.45 1012.96 1012.44 1011.89 1011.28 1010.61 1009.88 1009.10 1008.26 1007.39 1006.50 1005.60 1004.71 1003.86 1003.06 1002.33
1015.43 1016.06 1016.66 1017.21 1017.66 1018.02 1018.27 1018.43 1018.52 1018.55 1018.56 1018.55 1018.53 1018.50 1018.45 1018.37 1018.23 1018.03 1017.75 1017.40 1016.99 1016.53 1016.04 1015.53 1015.04 1014.56 1014.09 1013.65 1013.20 1012.75 1012.27 1011.75 1011.16 1010.52 1009.80 1009.01 1008.17 1007.27 1006.34 1005.41 1004.48 1003.60 1002.78
Thickness
5766 5765 5763 5762 5761 5761 5760 5759 5759 5759 5759 5758 5758 5758 5758 5756 5754 5750 5746 5743 5741 5739 5738 5736 5734 5732 5731 5729 5728 5726 5724 5723 5721 5719 5718 5716 5715 5714 5712 5711 5710 5708 5707
5767 5765 5763 5762 5762 5761 5760 5760 5759 5759 5758 5758 5757 5757 5757 5756 5754 5751 5747 5744 5742 5740 5739 5737 5735 5733 5732 5730 5728 5727 5725 5723 5722 5720 5718 5717 5715 5714 5712 5711 5710 5708 5707
5767 5765 5764 5762 5762 5761 5760 5759 5759 5758 5758 5758 5757 5757 5757 5756 5754 5753 5749 5746 5744 5742 5740 5739 5737 5735 5733 5731 5730 5728 5726 5724 5723 5721 5719 5717 5716 5714 5713 5712 5710 5709 5707
5768 5766 5765 5763 5762 5761 5759 5758 5758 5757 5757 5756 5756 5757 5757 5756 5755 5753 5752 5749 5747 5745 5742 5740 5739 5737 5735 5733 5731 5730 5728 5726 5724 5722 5720 5718 5717 5715 5713 5712 5710 5709 5708
5768 5767 5765 5763 5762 5760 5759 5759 5757 5757 5755 5755 5755 5756 5757 5756 5756 5756 5754 5753 5751 5749 5746 5743 5741 5739 5737 5735 5734 5732 5730 5728 5726 5723 5722 5720 5718 5717 5715 5713 5711 5710 5709
5769 5767 5766 5764 5762 5761 5759 5758 5756 5756 5755 5755 5756 5756 5756 5757 5757 5757 5756 5755 5754 5752 5750 5748 5744 5742 5740 5738 5736 5734 5732 5730 5728 5726 5724 5722 5720 5718 5716 5715 5713 5712 5710
5769 5767 5767 5764 5763 5761 5759 5758 5756 5754 5753 5755 5752 5750 5754 5758 5758 5759 5759 5757 5755 5755 5753 5751 5747 5745 5743 5741 5739 5737 5734 5732 5730 5728 5726 5724 5722 5720 5718 5716 5715 5713 5711
5770 5769 5766 5764 5763 5761 5759 5758 5756 5753 5753 5755 5750 5743 5742 5747 5754 5761 5760 5757 5756 5755 5754 5753 5751 5749 5748 5745 5742 5740 5737 5735 5733 5730 5728 5726 5724 5722 5720 5718 5716 5714 5713
5771 5769 5768 5766 5764 5762 5759 5758 5756 5753 5750 5753 5754 5746 5739 5737 5746 5754 5759 5759 5757 5757 5756 5755 5753 5752 5750 5748 5745 5743 5740 5737 5735 5733 5731 5729 5726 5724 5722 5720 5718 5716 5714
5772 5771 5769 5767 5765 5763 5761 5759 5758 5756 5752 5749 5752 5753 5751 5749 5742 5742 5751 5757 5758 5758 5758 5758 5757 5755 5753 5751 5748 5746 5743 5740 5738 5735 5733 5730 5728 5726 5724 5722 5720 5718 5716
5772 5771 5770 5768 5765 5764 5762 5760 5759 5757 5754 5752 5751 5751 5751 5750 5749 5741 5739 5748 5753 5757 5759 5759 5759 5757 5756 5754 5750 5748 5746 5743 5740 5737 5734 5732 5730 5728 5726 5723 5721 5719 5717
5772 5771 5769 5768 5766 5764 5763 5761 5760 5758 5756 5754 5753 5752 5750 5748 5747 5745 5742 5743 5746 5753 5758 5760 5760 5758 5757 5755 5753 5751 5748 5744 5741 5738 5736 5733 5731 5729 5727 5725 5722 5720 5718
5770 5770 5770 5768 5766 5765 5764 5763 5761 5759 5757 5755 5753 5753 5754 5753 5754 5751 5746 5743 5744 5750 5755 5757 5758 5758 5758 5756 5754 5752 5749 5746 5742 5739 5736 5733 5731 5729 5727 5725 5723 5721 5719
5772 5772 5771 5769 5767 5766 5764 5763 5761 5759 5758 5756 5755 5755 5754 5755 5756 5753 5749 5744 5739 5742 5747 5751 5756 5757 5756 5755 5754 5751 5748 5745 5742 5739 5736 5733 5731 5728 5726 5724 5722 5720 5718
5773 5772 5771 5768 5766 5766 5764 5762 5760 5759 5758 5757 5756 5755 5754 5755 5755 5755 5753 5749 5740 5734 5737 5745 5749 5753 5752 5752 5751 5749 5747 5744 5741 5738 5735 5732 5730 5728 5725 5723 5721 5719 5717
5773 5772 5770 5768 5767 5765 5763 5761 5760 5759 5757 5756 5756 5755 5754 5754 5754 5753 5752 5750 5747 5740 5735 5741 5744 5749 5749 5748 5746 5745 5744 5742 5739 5736 5733 5731 5728 5726 5724 5722 5719 5717 5715
5773 5771 5769 5768 5765 5763 5762 5760 5758 5758 5756 5754 5754 5754 5752 5753 5751 5751 5750 5749 5746 5743 5736 5740 5743 5745 5744 5743 5742 5741 5740 5739 5736 5733 5731 5728 5726 5724 5721 5719 5717 5715 5712
5773 5770 5768 5765 5763 5762 5760 5758 5755 5755 5753 5752 5751 5751 5750 5750 5748 5748 5746 5745 5744 5743 5738 5734 5737 5738 5738 5739 5738 5736 5736 5736 5734 5731 5729 5726 5724 5721 5719 5716 5713 5711 5709
5770 5768 5765 5762 5760 5758 5756 5755 5753 5751 5750 5749 5748 5747 5746 5745 5743 5743 5743 5741 5740 5740 5738 5733 5732 5733 5732 5733 5732 5731 5731 5730 5729 5728 5726 5723 5721 5718 5715 5712 5709 5707 5705
5766 5764 5762 5759 5757 5755 5752 5751 5749 5748 5746 5745 5745 5743 5742 5740 5738 5738 5737 5736 5735 5733 5732 5729 5726 5726 5725 5726 5725 5722 5721 5722 5721 5722 5721 5719 5716 5713 5710 5708 5705 5702 5700
5762 5760 5758 5756 5754 5750 5747 5745 5745 5744 5741 5739 5739 5738 5736 5734 5732 5731 5731 5729 5728 5726 5724 5721 5719 5718 5717 5716 5714 5715 5712 5713 5714 5715 5713 5711 5709 5706 5703 5700 5698 5696 5693
5756 5754 5752 5750 5747 5743 5740 5739 5738 5737 5735 5733 5731 5731 5730 5727 5726 5724 5723 5722 5721 5718 5715 5712 5710 5708 5707 5707 5707 5706 5704 5702 5701 5705 5703 5701 5701 5698 5696 5693 5691 5689 5686
5749 5748 5746 5743 5739 5735 5733 5732 5731 5731 5729 5727 5725 5723 5722 5720 5719 5718 5716 5714 5712 5710 5708 5705 5702 5700 5699 5699 5698 5696 5695 5692 5691 5693 5692 5690 5689 5686 5686 5684 5682 5680 5677
5743 5741 5739 5737 5733 5728 5727 5726 5725 5724 5722 5719 5717 5715 5712 5710 5710 5709 5708 5705 5702 5700 5699 5697 5694 5692 5691 5690 5689 5687 5685 5684 5684 5683 5681 5677 5676 5674 5675 5673 5671 5668 5665
5736 5733 5730 5728 5725 5721 5720 5720 5718 5717 5713 5710 5708 5705 5703 5701 5700 5700 5699 5695 5692 5690 5688 5687 5685 5683 5681 5680 5678 5676 5674 5672 5669 5669 5668 5665 5664 5663 5662 5661 5660 5657 5655
5729 5726 5722 5719 5717 5714 5712 5711 5710 5709 5705 5702 5699 5696 5694 5691 5689 5688 5687 5684 5681 5679 5678 5677 5675 5674 5672 5669 5667 5664 5662 5659 5656 5654 5655 5653 5651 5650 5648 5649 5647 5645 5642